Time,TemperatureF,DewpointF,PressureIn,WindDirection,WindDirectionDegrees,WindSpeedMPH,WindSpeedGustMPH,Humidity,HourlyPrecipIn,Conditions,Clouds,dailyrainin,SoftwareType,DateUTC
2013-03-10 00:00:00,35.0,29.5,30.30,SE,138,0.0,0.0,80,0.00,,---,0.00,VWS V14.01,2013-03-10 05:00:00,
2013-03-10 00:05:00,35.0,29.8,30.30,SE,138,0.0,0.0,81,0.00,,---,0.00,VWS V14.01,2013-03-10 05:05:00,
2013-03-10 00:10:00,35.0,29.8,30.30,SE,138,0.0,0.0,81,0.00,,---,0.00,VWS V14.01,2013-03-10 05:10:00,
2013-03-10 00:15:00,35.0,29.8,30.30,SE,138,0.0,0.0,81,0.00,,---,0.00,VWS V14.01,2013-03-10 05:15:00,
2013-03-10 00:20:00,35.0,29.8,30.31,SE,138,0.0,0.0,81,0.00,,---,0.00,VWS V14.01,2013-03-10 05:20:00,
2013-03-10 00:25:00,35.0,29.5,30.30,SE,138,0.0,0.0,80,0.00,,---,0.00,VWS V14.01,2013-03-10 05:25:00,
2013-03-10 00:30:00,34.7,29.2,30.30,SE,138,0.0,0.0,80,0.00,,---,0.00,VWS V14.01,2013-03-10 05:30:00,
2013-03-10 00:35:00,34.6,29.1,30.30,SE,138,0.0,0.0,80,0.00,,---,0.00,VWS V14.01,2013-03-10 05:35:00,
2013-03-10 00:40:00,34.4,28.9,30.30,SE,138,0.0,0.0,80,0.00,,---,0.00,VWS V14.01,2013-03-10 05:40:00,
2013-03-10 00:45:00,34.2,28.7,30.30,SE,138,0.0,0.0,80,0.00,,---,0.00,VWS V14.01,2013-03-10 05:45:00,
2013-03-10 00:50:00,34.0,29.1,30.30,SE,138,0.0,2.0,82,0.00,,---,0.00,VWS V14.01,2013-03-10 05:50:00,
2013-03-10 00:55:00,33.8,28.9,30.30,SE,138,0.0,2.0,82,0.00,,---,0.00,VWS V14.01,2013-03-10 05:55:00,
2013-03-10 01:00:00,33.6,28.7,30.30,SE,138,0.0,0.0,82,0.00,,---,0.00,VWS V14.01,2013-03-10 06:00:00,
2013-03-10 01:05:00,33.5,28.6,30.30,SE,138,0.0,0.0,82,0.00,,---,0.00,VWS V14.01,2013-03-10 06:05:00,
2013-03-10 01:10:00,33.4,28.5,30.30,SE,138,0.0,0.0,82,0.00,,---,0.00,VWS V14.01,2013-03-10 06:10:00,
2013-03-10 01:15:00,33.3,28.7,30.30,SE,138,0.0,0.0,83,0.00,,---,0.00,VWS V14.01,2013-03-10 06:15:00,
2013-03-10 01:20:00,33.1,28.5,30.30,SE,138,0.0,0.0,83,0.00,,---,0.00,VWS V14.01,2013-03-10 06:20:00,
2013-03-10 01:25:00,32.9,28.3,30.30,SE,138,0.0,0.0,83,0.00,,---,0.00,VWS V14.01,2013-03-10 06:25:00,
2013-03-10 01:30:00,32.8,28.2,30.30,SE,138,0.0,0.0,83,0.00,,---,0.00,VWS V14.01,2013-03-10 06:30:00,
2013-03-10 01:35:00,32.6,28.3,30.30,SE,138,0.0,0.0,84,0.00,,---,0.00,VWS V14.01,2013-03-10 06:35:00,
2013-03-10 01:40:00,32.5,28.2,30.30,SE,138,0.0,0.0,84,0.00,,---,0.00,VWS V14.01,2013-03-10 06:40:00,
2013-03-10 01:45:00,32.3,28.0,30.30,SE,138,0.0,0.0,84,0.00,,---,0.00,VWS V14.01,2013-03-10 06:45:00,
2013-03-10 01:50:00,32.3,28.3,30.30,SE,138,0.0,0.0,85,0.00,,---,0.00,VWS V14.01,2013-03-10 06:50:00,
2013-03-10 01:55:00,32.1,28.1,30.30,SE,138,0.0,0.0,85,0.00,,---,0.00,VWS V14.01,2013-03-10 06:55:00,
2013-03-10 03:00:00,31.9,28.2,30.30,SE,138,0.0,0.0,86,0.00,,---,0.00,VWS V14.01,2013-03-10 07:00:00,
2013-03-10 03:05:00,31.7,28.0,30.30,SE,138,0.0,0.0,86,0.00,,---,0.00,VWS V14.01,2013-03-10 07:05:00,
2013-03-10 03:10:00,31.6,28.2,30.29,SE,138,0.0,0.0,87,0.00,,---,0.00,VWS V14.01,2013-03-10 07:10:00,
2013-03-10 03:15:00,31.5,28.1,30.29,SE,138,0.0,0.0,87,0.00,,---,0.00,VWS V14.01,2013-03-10 07:15:00,
2013-03-10 03:20:00,31.4,28.0,30.29,SE,138,0.0,0.0,87,0.00,,---,0.00,VWS V14.01,2013-03-10 07:20:00,
2013-03-10 03:25:00,31.4,28.0,30.29,SE,138,0.0,0.0,87,0.00,,---,0.00,VWS V14.01,2013-03-10 07:25:00,
2013-03-10 03:30:00,31.3,28.2,30.28,SE,138,0.0,0.0,88,0.00,,---,0.00,VWS V14.01,2013-03-10 07:30:00,
2013-03-10 03:35:00,31.2,28.1,30.28,SE,138,0.0,0.0,88,0.00,,---,0.00,VWS V14.01,2013-03-10 07:35:00,
2013-03-10 03:40:00,31.1,28.0,30.28,SE,138,0.0,0.0,88,0.00,,---,0.00,VWS V14.01,2013-03-10 07:40:00,
2013-03-10 03:45:00,30.9,27.8,30.28,SE,138,0.0,0.0,88,0.00,,---,0.00,VWS V14.01,2013-03-10 07:45:00,
2013-03-10 03:50:00,30.8,27.7,30.28,SE,138,0.0,0.0,88,0.00,,---,0.00,VWS V14.01,2013-03-10 07:50:00,
2013-03-10 03:55:00,30.6,27.5,30.28,SE,138,0.0,0.0,88,0.00,,---,0.00,VWS V14.01,2013-03-10 07:55:00,
2013-03-10 04:00:00,30.5,27.4,30.28,SE,138,0.0,0.0,88,0.00,,---,0.00,VWS V14.01,2013-03-10 08:00:00,
2013-03-10 04:05:00,30.4,27.3,30.28,SE,138,0.0,0.0,88,0.00,,---,0.00,VWS V14.01,2013-03-10 08:05:00,
2013-03-10 04:10:00,30.4,27.5,30.27,SE,138,0.0,0.0,89,0.00,,---,0.00,VWS V14.01,2013-03-10 08:10:00,
2013-03-10 04:15:00,30.3,27.5,30.27,SE,138,0.0,0.0,89,0.00,,---,0.00,VWS V14.01,2013-03-10 08:15:00,
2013-03-10 04:20:00,30.3,27.5,30.27,SE,138,0.0,0.0,89,0.00,,---,0.00,VWS V14.01,2013-03-10 08:20:00,
2013-03-10 04:25:00,30.2,27.4,30.27,SE,138,0.0,0.0,89,0.00,,---,0.00,VWS V14.01,2013-03-10 08:25:00,
2013-03-10 04:30:00,30.1,27.3,30.27,SE,138,0.0,0.0,89,0.00,,---,0.00,VWS V14.01,2013-03-10 08:30:00,
2013-03-10 04:35:00,30.1,27.3,30.27,SE,138,0.0,0.0,89,0.00,,---,0.00,VWS V14.01,2013-03-10 08:35:00,
2013-03-10 04:40:00,30.0,27.2,30.27,SE,138,0.0,0.0,89,0.00,,---,0.00,VWS V14.01,2013-03-10 08:40:00,
2013-03-10 04:45:00,30.0,27.2,30.27,SE,138,0.0,0.0,89,0.00,,---,0.00,VWS V14.01,2013-03-10 08:45:00,
2013-03-10 04:50:00,30.0,27.4,30.27,SE,138,0.0,0.0,90,0.00,,---,0.00,VWS V14.01,2013-03-10 08:50:00,
2013-03-10 04:55:00,30.1,27.5,30.27,SE,138,0.0,0.0,90,0.00,,---,0.00,VWS V14.01,2013-03-10 08:55:00,
2013-03-10 05:00:00,30.2,27.4,30.27,SE,138,0.0,0.0,89,0.00,,---,0.00,VWS V14.01,2013-03-10 09:00:00,
2013-03-10 05:05:00,30.2,27.4,30.27,SE,138,0.0,0.0,89,0.00,,---,0.00,VWS V14.01,2013-03-10 09:05:00,
2013-03-10 05:10:00,30.0,27.2,30.27,SE,138,0.0,0.0,89,0.00,,---,0.00,VWS V14.01,2013-03-10 09:10:00,
2013-03-10 05:15:00,29.9,27.1,30.27,SE,138,0.0,0.0,89,0.00,,---,0.00,VWS V14.01,2013-03-10 09:15:00,
2013-03-10 05:20:00,29.8,27.0,30.28,SE,138,4.0,4.0,89,0.00,,---,0.00,VWS V14.01,2013-03-10 09:20:00,
2013-03-10 05:25:00,29.6,26.8,30.28,SE,138,2.0,4.0,89,0.00,,---,0.00,VWS V14.01,2013-03-10 09:25:00,
2013-03-10 05:30:00,29.5,26.9,30.28,SE,138,0.0,1.0,90,0.00,,---,0.00,VWS V14.01,2013-03-10 09:30:00,
2013-03-10 05:35:00,29.6,27.0,30.28,SE,138,0.0,1.0,90,0.00,,---,0.00,VWS V14.01,2013-03-10 09:35:00,
2013-03-10 05:40:00,29.6,27.0,30.29,SE,138,0.0,1.0,90,0.00,,---,0.00,VWS V14.01,2013-03-10 09:40:00,
2013-03-10 05:45:00,29.7,27.1,30.28,SE,138,1.0,1.0,90,0.00,,---,0.00,VWS V14.01,2013-03-10 09:45:00,
2013-03-10 05:50:00,29.7,27.1,30.29,SE,138,1.0,2.0,90,0.00,,---,0.00,VWS V14.01,2013-03-10 09:50:00,
2013-03-10 05:55:00,29.8,27.0,30.28,SE,138,0.0,2.0,89,0.00,,---,0.00,VWS V14.01,2013-03-10 09:55:00,
2013-03-10 06:00:00,30.1,27.3,30.28,SE,138,0.0,0.0,89,0.00,,---,0.00,VWS V14.01,2013-03-10 10:00:00,
2013-03-10 06:05:00,30.2,27.1,30.29,SE,138,0.0,0.0,88,0.00,,---,0.00,VWS V14.01,2013-03-10 10:05:00,
2013-03-10 06:10:00,30.2,27.1,30.29,SE,138,0.0,0.0,88,0.00,,---,0.00,VWS V14.01,2013-03-10 10:10:00,
2013-03-10 06:15:00,30.0,26.9,30.29,SE,138,0.0,2.0,88,0.00,,---,0.00,VWS V14.01,2013-03-10 10:15:00,
2013-03-10 06:20:00,29.9,26.8,30.29,SE,138,0.0,2.0,88,0.00,,---,0.00,VWS V14.01,2013-03-10 10:20:00,
2013-03-10 06:25:00,29.7,26.6,30.29,SE,138,0.0,2.0,88,0.00,,---,0.00,VWS V14.01,2013-03-10 10:25:00,
2013-03-10 06:30:00,29.6,26.8,30.28,SE,138,0.0,0.0,89,0.00,,---,0.00,VWS V14.01,2013-03-10 10:30:00,
2013-03-10 06:35:00,29.5,26.7,30.28,SE,138,0.0,0.0,89,0.00,,---,0.00,VWS V14.01,2013-03-10 10:35:00,
2013-03-10 06:40:00,29.4,26.6,30.28,SE,138,0.0,0.0,89,0.00,,---,0.00,VWS V14.01,2013-03-10 10:40:00,
2013-03-10 06:45:00,29.4,26.6,30.28,SE,138,0.0,0.0,89,0.00,,---,0.00,VWS V14.01,2013-03-10 10:45:00,
2013-03-10 06:50:00,29.4,26.6,30.29,SE,138,0.0,0.0,89,0.00,,---,0.00,VWS V14.01,2013-03-10 10:50:00,
2013-03-10 06:55:00,29.3,26.5,30.29,SE,138,0.0,0.0,89,0.00,,---,0.00,VWS V14.01,2013-03-10 10:55:00,
2013-03-10 07:00:00,29.2,26.6,30.29,SE,138,0.0,0.0,90,0.00,,---,0.00,VWS V14.01,2013-03-10 11:00:00,
2013-03-10 07:05:00,29.1,26.5,30.29,SE,138,0.0,0.0,90,0.00,,---,0.00,VWS V14.01,2013-03-10 11:05:00,
2013-03-10 07:10:00,29.0,26.4,30.29,SE,138,0.0,0.0,90,0.00,,---,0.00,VWS V14.01,2013-03-10 11:10:00,
2013-03-10 07:15:00,29.0,26.4,30.29,SE,138,0.0,0.0,90,0.00,,---,0.00,VWS V14.01,2013-03-10 11:15:00,
2013-03-10 07:20:00,29.0,26.4,30.29,SE,138,0.0,0.0,90,0.00,,---,0.00,VWS V14.01,2013-03-10 11:20:00,
2013-03-10 07:25:00,29.0,26.4,30.29,SE,138,0.0,0.0,90,0.00,,---,0.00,VWS V14.01,2013-03-10 11:25:00,
2013-03-10 07:30:00,29.0,26.4,30.29,SE,138,0.0,0.0,90,0.00,,---,0.00,VWS V14.01,2013-03-10 11:30:00,
2013-03-10 07:35:00,29.0,26.4,30.29,SE,138,0.0,0.0,90,0.00,,---,0.00,VWS V14.01,2013-03-10 11:35:00,
2013-03-10 07:40:00,29.0,26.4,30.29,SE,138,0.0,0.0,90,0.00,,---,0.00,VWS V14.01,2013-03-10 11:40:00,
2013-03-10 07:45:00,29.0,26.4,30.29,SE,138,0.0,0.0,90,0.00,,---,0.00,VWS V14.01,2013-03-10 11:45:00,
2013-03-10 07:50:00,29.0,26.4,30.29,SE,138,0.0,0.0,90,0.00,,---,0.00,VWS V14.01,2013-03-10 11:50:00,
2013-03-10 07:55:00,28.8,26.2,30.29,SE,138,0.0,0.0,90,0.00,,---,0.00,VWS V14.01,2013-03-10 11:55:00,
2013-03-10 08:00:00,28.8,26.5,30.29,SE,138,0.0,0.0,91,0.00,,---,0.00,VWS V14.01,2013-03-10 12:00:00,
2013-03-10 08:05:00,28.9,26.6,30.29,SE,138,0.0,0.0,91,0.00,,---,0.00,VWS V14.01,2013-03-10 12:05:00,
2013-03-10 08:10:00,29.0,26.7,30.29,SE,138,0.0,0.0,91,0.00,,---,0.00,VWS V14.01,2013-03-10 12:10:00,
2013-03-10 08:15:00,29.0,26.7,30.29,SE,138,0.0,0.0,91,0.00,,---,0.00,VWS V14.01,2013-03-10 12:15:00,
2013-03-10 08:20:00,29.2,26.6,30.29,SE,138,0.0,0.0,90,0.00,,---,0.00,VWS V14.01,2013-03-10 12:20:00,
2013-03-10 08:25:00,29.3,26.7,30.30,SE,138,0.0,0.0,90,0.00,,---,0.00,VWS V14.01,2013-03-10 12:25:00,
2013-03-10 08:30:00,29.8,27.0,30.29,SE,138,0.0,0.0,89,0.00,,---,0.00,VWS V14.01,2013-03-10 12:30:00,
2013-03-10 08:35:00,30.3,27.5,30.29,SE,138,0.0,0.0,89,0.00,,---,0.00,VWS V14.01,2013-03-10 12:35:00,
2013-03-10 08:40:00,30.9,28.3,30.29,SE,138,0.0,0.0,90,0.00,,---,0.00,VWS V14.01,2013-03-10 12:40:00,
2013-03-10 08:45:00,31.4,28.8,30.29,SE,138,0.0,0.0,90,0.00,,---,0.00,VWS V14.01,2013-03-10 12:45:00,
2013-03-10 08:50:00,31.9,29.3,30.30,SE,138,0.0,0.0,90,0.00,,---,0.00,VWS V14.01,2013-03-10 12:50:00,
2013-03-10 08:55:00,32.4,29.5,30.30,SE,138,0.0,0.0,89,0.00,,---,0.00,VWS V14.01,2013-03-10 12:55:00,
2013-03-10 09:00:00,33.0,29.8,30.30,SE,138,0.0,0.0,88,0.00,,---,0.00,VWS V14.01,2013-03-10 13:00:00,
2013-03-10 09:05:00,33.7,30.0,30.30,SE,138,2.0,2.0,86,0.00,,---,0.00,VWS V14.01,2013-03-10 13:05:00,
2013-03-10 09:10:00,34.3,30.3,30.31,SE,138,0.0,4.0,85,0.00,,---,0.00,VWS V14.01,2013-03-10 13:10:00,
2013-03-10 09:15:00,35.1,30.2,30.31,SE,138,2.0,4.0,82,0.00,,---,0.00,VWS V14.01,2013-03-10 13:15:00,
2013-03-10 09:20:00,36.0,30.4,30.31,SE,138,0.0,4.0,80,0.00,,---,0.00,VWS V14.01,2013-03-10 13:20:00,
2013-03-10 09:25:00,37.2,30.4,30.32,SE,138,0.0,4.0,76,0.00,,---,0.00,VWS V14.01,2013-03-10 13:25:00,
2013-03-10 09:30:00,38.5,31.3,30.31,SE,138,0.0,0.0,75,0.00,,---,0.00,VWS V14.01,2013-03-10 13:30:00,
2013-03-10 09:35:00,39.9,30.2,30.31,SE,138,0.0,0.0,68,0.00,,---,0.00,VWS V14.01,2013-03-10 13:35:00,
2013-03-10 09:40:00,41.6,29.2,30.31,SE,138,0.0,0.0,61,0.00,,---,0.00,VWS V14.01,2013-03-10 13:40:00,
2013-03-10 09:45:00,43.1,29.3,30.31,SE,138,0.0,1.0,58,0.00,,---,0.00,VWS V14.01,2013-03-10 13:45:00,
2013-03-10 09:50:00,44.1,30.7,30.31,SE,138,0.0,1.0,59,0.00,,---,0.00,VWS V14.01,2013-03-10 13:50:00,
2013-03-10 09:55:00,45.0,32.0,30.31,SE,138,0.0,2.0,60,0.00,,---,0.00,VWS V14.01,2013-03-10 13:55:00,
2013-03-10 10:00:00,45.7,32.2,30.31,SE,138,0.0,0.0,59,0.00,,---,0.00,VWS V14.01,2013-03-10 14:00:00,
2013-03-10 10:05:00,46.3,31.0,30.31,SE,138,0.0,2.0,55,0.00,,---,0.00,VWS V14.01,2013-03-10 14:05:00,
2013-03-10 10:10:00,46.7,32.3,30.31,SE,138,0.0,2.0,57,0.00,,---,0.00,VWS V14.01,2013-03-10 14:10:00,
2013-03-10 10:15:00,47.1,31.3,30.31,ENE,73,1.0,5.0,54,0.00,,---,0.00,VWS V14.01,2013-03-10 14:15:00,
2013-03-10 10:20:00,47.6,30.9,30.31,East,101,2.0,5.0,52,0.00,,---,0.00,VWS V14.01,2013-03-10 14:20:00,
2013-03-10 10:25:00,48.1,30.4,30.31,East,101,0.0,5.0,50,0.00,,---,0.00,VWS V14.01,2013-03-10 14:25:00,
2013-03-10 10:30:00,48.4,30.6,30.32,ESE,110,0.0,2.0,50,0.00,,---,0.00,VWS V14.01,2013-03-10 14:30:00,
2013-03-10 10:35:00,48.7,30.9,30.32,ESE,110,1.0,2.0,50,0.00,,---,0.00,VWS V14.01,2013-03-10 14:35:00,
2013-03-10 10:40:00,49.1,29.2,30.32,South,173,0.0,5.0,46,0.00,,---,0.00,VWS V14.01,2013-03-10 14:40:00,
2013-03-10 10:45:00,49.5,30.1,30.31,South,173,0.0,5.0,47,0.00,,---,0.00,VWS V14.01,2013-03-10 14:45:00,
2013-03-10 10:50:00,49.9,30.5,30.31,South,184,0.0,5.0,47,0.00,,---,0.00,VWS V14.01,2013-03-10 14:50:00,
2013-03-10 10:55:00,50.3,32.4,30.31,South,180,1.0,5.0,50,0.00,,---,0.00,VWS V14.01,2013-03-10 14:55:00,
2013-03-10 11:00:00,50.7,31.7,30.31,SSE,149,2.0,4.0,48,0.00,,---,0.00,VWS V14.01,2013-03-10 15:00:00,
2013-03-10 11:05:00,51.0,32.0,30.31,SE,144,0.0,4.0,48,0.00,,---,0.00,VWS V14.01,2013-03-10 15:05:00,
2013-03-10 11:10:00,51.1,31.6,30.31,SE,137,2.0,5.0,47,0.00,,---,0.00,VWS V14.01,2013-03-10 15:10:00,
2013-03-10 11:15:00,51.0,31.5,30.31,SSE,153,0.0,6.0,47,0.00,,---,0.00,VWS V14.01,2013-03-10 15:15:00,
2013-03-10 11:20:00,51.0,32.0,30.31,SSE,151,2.0,6.0,48,0.00,,---,0.00,VWS V14.01,2013-03-10 15:20:00,
2013-03-10 11:25:00,51.1,32.1,30.30,SE,146,1.0,6.0,48,0.00,,---,0.00,VWS V14.01,2013-03-10 15:25:00,
2013-03-10 11:30:00,51.2,32.7,30.30,SE,144,0.0,2.0,49,0.00,,---,0.00,VWS V14.01,2013-03-10 15:30:00,
2013-03-10 11:35:00,51.4,32.4,30.30,SE,144,0.0,5.0,48,0.00,,---,0.00,VWS V14.01,2013-03-10 15:35:00,
2013-03-10 11:40:00,51.6,32.6,30.30,SE,139,0.0,5.0,48,0.00,,---,0.00,VWS V14.01,2013-03-10 15:40:00,
2013-03-10 11:45:00,51.9,32.8,30.29,East,97,2.0,5.0,48,0.00,,---,0.00,VWS V14.01,2013-03-10 15:45:00,
2013-03-10 11:50:00,52.2,32.6,30.29,East,97,0.0,5.0,47,0.00,,---,0.00,VWS V14.01,2013-03-10 15:50:00,
2013-03-10 11:55:00,52.5,33.4,30.29,East,97,4.0,5.0,48,0.00,,---,0.00,VWS V14.01,2013-03-10 15:55:00,
2013-03-10 12:00:00,53.0,34.4,30.29,East,96,0.0,2.0,49,0.00,,---,0.00,VWS V14.01,2013-03-10 16:00:00,
2013-03-10 12:05:00,53.4,35.7,30.29,East,96,0.0,2.0,51,0.00,,---,0.00,VWS V14.01,2013-03-10 16:05:00,
2013-03-10 12:10:00,53.7,33.4,30.29,ESE,103,4.0,5.0,46,0.00,,---,0.00,VWS V14.01,2013-03-10 16:10:00,
2013-03-10 12:15:00,54.0,33.7,30.29,ESE,103,0.0,5.0,46,0.00,,---,0.00,VWS V14.01,2013-03-10 16:15:00,
2013-03-10 12:20:00,54.2,35.0,30.29,SE,146,0.0,5.0,48,0.00,,---,0.00,VWS V14.01,2013-03-10 16:20:00,
2013-03-10 12:25:00,54.4,34.1,30.29,SE,146,0.0,5.0,46,0.00,,---,0.00,VWS V14.01,2013-03-10 16:25:00,
2013-03-10 12:30:00,54.5,33.6,30.28,SSE,156,0.0,0.0,45,0.00,,---,0.00,VWS V14.01,2013-03-10 16:30:00,
2013-03-10 12:35:00,54.7,34.3,30.28,SSE,156,0.0,1.0,46,0.00,,---,0.00,VWS V14.01,2013-03-10 16:35:00,
2013-03-10 12:40:00,54.9,34.0,30.28,SSW,202,2.0,3.0,45,0.00,,---,0.00,VWS V14.01,2013-03-10 16:40:00,
2013-03-10 12:45:00,55.2,33.7,30.27,SSW,200,0.0,3.0,44,0.00,,---,0.00,VWS V14.01,2013-03-10 16:45:00,
2013-03-10 12:50:00,55.6,35.2,30.27,SSW,200,0.0,3.0,46,0.00,,---,0.00,VWS V14.01,2013-03-10 16:50:00,
2013-03-10 12:55:00,55.9,34.9,30.27,SW,228,0.0,5.0,45,0.00,,---,0.00,VWS V14.01,2013-03-10 16:55:00,
2013-03-10 13:00:00,56.3,33.5,30.27,SW,225,2.0,3.0,42,0.00,,---,0.00,VWS V14.01,2013-03-10 17:00:00,
2013-03-10 13:08:00,57.2,35.0,30.27,SW,233,5.0,-999.0,43,-99.99,,,0.00,weatherlink.com 1.10,2013-03-10 17:08:00,
2013-03-10 13:13:00,57.5,34.6,30.26,WSW,242,5.0,10.0,42,0.00,,---,0.00,VWS V14.01,2013-03-10 17:13:00,
2013-03-10 13:18:00,57.8,34.9,30.26,West,266,5.0,10.0,42,0.00,,---,0.00,VWS V14.01,2013-03-10 17:18:00,
2013-03-10 13:23:00,58.3,35.9,30.26,WSW,253,5.0,10.0,43,0.00,,---,0.00,VWS V14.01,2013-03-10 17:23:00,
2013-03-10 13:28:00,58.6,34.4,30.26,SSW,198,6.0,10.0,40,0.00,,---,0.00,VWS V14.01,2013-03-10 17:28:00,
2013-03-10 13:30:00,58.6,35.0,30.26,South,175,11.0,11.0,41,0.00,,---,0.00,VWS V14.01,2013-03-10 17:30:00,
2013-03-10 13:33:00,58.8,34.5,30.25,WSW,240,5.0,11.0,40,0.00,,---,0.00,VWS V14.01,2013-03-10 17:33:00,
2013-03-10 13:38:00,59.0,36.0,30.25,WSW,254,5.0,11.0,42,0.00,,---,0.00,VWS V14.01,2013-03-10 17:38:00,
2013-03-10 13:43:00,59.2,35.5,30.25,SE,146,0.0,11.0,41,0.00,,---,0.00,VWS V14.01,2013-03-10 17:43:00,
2013-03-10 13:48:00,59.8,36.1,30.25,SSW,202,6.0,11.0,41,0.00,,---,0.00,VWS V14.01,2013-03-10 17:48:00,
2013-03-10 13:53:00,60.3,35.3,30.24,SSW,192,9.0,11.0,39,0.00,,---,0.00,VWS V14.01,2013-03-10 17:53:00,
2013-03-10 13:59:00,60.2,33.8,30.24,SE,131,2.0,12.0,37,0.00,,---,0.00,VWS V14.01,2013-03-10 17:59:00,
2013-03-10 14:00:00,60.2,35.2,30.24,SE,138,2.0,12.0,39,0.00,,---,0.00,VWS V14.01,2013-03-10 18:00:00,
2013-03-10 14:04:00,60.1,35.1,30.25,South,190,5.0,6.0,39,0.00,,---,0.00,VWS V14.01,2013-03-10 18:04:00,
2013-03-10 14:09:00,59.9,34.2,30.24,SSW,202,4.0,9.0,38,0.00,,---,0.00,VWS V14.01,2013-03-10 18:09:00,
2013-03-10 14:14:00,59.8,34.8,30.24,SSW,209,2.0,9.0,39,0.00,,---,0.00,VWS V14.01,2013-03-10 18:14:00,
2013-03-10 14:19:00,59.8,34.8,30.24,SW,218,4.0,9.0,39,0.00,,---,0.00,VWS V14.01,2013-03-10 18:19:00,
2013-03-10 14:23:00,59.4,34.5,30.24,WSW,244,7.0,9.0,39,0.00,,---,0.00,VWS V14.01,2013-03-10 18:23:00,
2013-03-10 14:28:00,59.1,34.8,30.24,SW,233,2.0,9.0,40,0.00,,---,0.00,VWS V14.01,2013-03-10 18:28:00,
2013-03-10 14:30:00,59.1,34.8,30.24,SW,233,3.0,9.0,40,0.00,,---,0.00,VWS V14.01,2013-03-10 18:30:00,
2013-03-10 14:33:00,59.3,35.6,30.24,SW,219,3.0,6.0,41,0.00,,---,0.00,VWS V14.01,2013-03-10 18:33:00,
2013-03-10 14:38:00,60.0,35.6,30.23,WSW,244,3.0,8.0,40,0.00,,---,0.00,VWS V14.01,2013-03-10 18:38:00,
2013-03-10 14:44:00,60.5,35.4,30.23,SW,216,3.0,8.0,39,0.00,,---,0.00,VWS V14.01,2013-03-10 18:44:00,
2013-03-10 14:49:00,61.1,36.6,30.23,SW,225,0.0,8.0,40,0.00,,---,0.00,VWS V14.01,2013-03-10 18:49:00,
2013-03-10 14:53:00,61.6,35.1,30.22,ESE,110,4.0,9.0,37,0.00,,---,0.00,VWS V14.01,2013-03-10 18:53:00,
2013-03-10 14:59:00,61.5,33.6,30.22,SSE,149,2.0,9.0,35,0.00,,---,0.00,VWS V14.01,2013-03-10 18:59:00,
2013-03-10 15:00:00,61.5,33.6,30.22,SSE,150,0.0,9.0,35,0.00,,---,0.00,VWS V14.01,2013-03-10 19:00:00,
2013-03-10 15:04:00,61.5,35.0,30.22,SSW,207,3.0,9.0,37,0.00,,---,0.00,VWS V14.01,2013-03-10 19:04:00,
2013-03-10 15:09:00,62.1,35.5,30.22,South,179,7.0,10.0,37,0.00,,---,0.00,VWS V14.01,2013-03-10 19:09:00,
2013-03-10 15:14:00,62.1,34.8,30.22,SSW,197,2.0,10.0,36,0.00,,---,0.00,VWS V14.01,2013-03-10 19:14:00,
2013-03-10 15:19:00,62.3,35.0,30.22,SSW,201,10.0,14.0,36,0.00,,---,0.00,VWS V14.01,2013-03-10 19:19:00,
2013-03-10 15:24:00,62.5,34.5,30.22,South,181,5.0,14.0,35,0.00,,---,0.00,VWS V14.01,2013-03-10 19:24:00,
2013-03-10 15:29:00,62.6,34.6,30.21,SE,146,2.0,14.0,35,0.00,,---,0.00,VWS V14.01,2013-03-10 19:29:00,
2013-03-10 15:30:00,62.6,34.6,30.21,South,171,7.0,14.0,35,0.00,,---,0.00,VWS V14.01,2013-03-10 19:30:00,
2013-03-10 15:34:00,62.3,35.0,30.21,SE,126,2.0,8.0,36,0.00,,---,0.00,VWS V14.01,2013-03-10 19:34:00,
2013-03-10 15:39:00,62.3,35.7,30.21,SSW,196,4.0,9.0,37,0.00,,---,0.00,VWS V14.01,2013-03-10 19:39:00,
2013-03-10 15:44:00,62.7,34.7,30.20,SSE,159,2.0,9.0,35,0.00,,---,0.00,VWS V14.01,2013-03-10 19:44:00,
2013-03-10 15:49:00,63.1,35.7,30.20,South,186,2.0,9.0,36,0.00,,---,0.00,VWS V14.01,2013-03-10 19:49:00,
2013-03-10 15:54:00,63.5,33.9,30.20,South,183,8.0,13.0,33,0.00,,---,0.00,VWS V14.01,2013-03-10 19:54:00,
2013-03-10 15:59:00,63.6,34.7,30.20,SSE,164,5.0,13.0,34,0.00,,---,0.00,VWS V14.01,2013-03-10 19:59:00,
2013-03-10 16:00:00,63.6,34.7,30.20,South,178,2.0,13.0,34,0.00,,---,0.00,VWS V14.01,2013-03-10 20:00:00,
2013-03-10 16:04:00,63.4,34.6,30.20,SSE,148,0.0,11.0,34,0.00,,---,0.00,VWS V14.01,2013-03-10 20:04:00,
2013-03-10 16:09:00,63.6,35.5,30.20,ESE,104,5.0,11.0,35,0.00,,---,0.00,VWS V14.01,2013-03-10 20:09:00,
2013-03-10 16:14:00,63.3,35.2,30.20,SE,124,4.0,11.0,35,0.00,,---,0.00,VWS V14.01,2013-03-10 20:14:00,
2013-03-10 16:19:00,63.1,34.3,30.20,ESE,123,8.0,11.0,34,0.00,,---,0.00,VWS V14.01,2013-03-10 20:19:00,
2013-03-10 16:24:00,63.0,34.9,30.19,ENE,77,1.0,11.0,35,0.00,,---,0.00,VWS V14.01,2013-03-10 20:24:00,
2013-03-10 16:29:00,63.3,35.2,30.19,SE,132,5.0,11.0,35,0.00,,---,0.00,VWS V14.01,2013-03-10 20:29:00,
2013-03-10 16:30:00,63.3,35.2,30.19,SSE,152,5.0,11.0,35,0.00,,---,0.00,VWS V14.01,2013-03-10 20:30:00,
2013-03-10 16:34:00,63.7,34.1,30.19,South,169,5.0,13.0,33,0.00,,---,0.00,VWS V14.01,2013-03-10 20:34:00,
2013-03-10 16:39:00,63.9,34.3,30.18,South,177,5.0,13.0,33,0.00,,---,0.00,VWS V14.01,2013-03-10 20:39:00,
2013-03-10 16:44:00,63.8,34.2,30.18,SW,215,4.0,14.0,33,0.00,,---,0.00,VWS V14.01,2013-03-10 20:44:00,
2013-03-10 16:49:00,63.9,35.0,30.19,SSE,150,7.0,14.0,34,0.00,,---,0.00,VWS V14.01,2013-03-10 20:49:00,
2013-03-10 16:54:00,63.9,35.0,30.19,East,98,2.0,14.0,34,0.00,,---,0.00,VWS V14.01,2013-03-10 20:54:00,
2013-03-10 16:59:00,63.8,34.9,30.19,South,178,1.0,14.0,34,0.00,,---,0.00,VWS V14.01,2013-03-10 20:59:00,
2013-03-10 17:00:00,63.8,34.2,30.19,SSE,161,1.0,14.0,33,0.00,,---,0.00,VWS V14.01,2013-03-10 21:00:00,
2013-03-10 17:04:00,63.9,34.3,30.19,SE,140,1.0,8.0,33,0.00,,---,0.00,VWS V14.01,2013-03-10 21:04:00,
2013-03-10 17:09:00,64.1,35.2,30.19,SW,231,2.0,9.0,34,0.00,,---,0.00,VWS V14.01,2013-03-10 21:09:00,
2013-03-10 17:14:00,64.4,36.2,30.19,NNE,19,2.0,9.0,35,0.00,,---,0.00,VWS V14.01,2013-03-10 21:14:00,
2013-03-10 17:19:00,64.8,35.0,30.19,SSW,200,1.0,9.0,33,0.00,,---,0.00,VWS V14.01,2013-03-10 21:19:00,
2013-03-10 17:24:00,64.5,34.8,30.18,SSW,198,0.0,9.0,33,0.00,,---,0.00,VWS V14.01,2013-03-10 21:24:00,
2013-03-10 17:29:00,64.4,34.7,30.18,SW,223,3.0,9.0,33,0.00,,---,0.00,VWS V14.01,2013-03-10 21:29:00,
2013-03-10 17:30:00,64.5,35.5,30.18,South,185,4.0,9.0,34,0.00,,---,0.00,VWS V14.01,2013-03-10 21:30:00,
2013-03-10 17:34:00,64.7,35.7,30.18,SE,145,1.0,5.0,34,0.00,,---,0.00,VWS V14.01,2013-03-10 21:34:00,
2013-03-10 17:39:00,64.7,35.0,30.18,ESE,109,5.0,9.0,33,0.00,,---,0.00,VWS V14.01,2013-03-10 21:39:00,
2013-03-10 17:44:00,64.4,35.5,30.18,South,171,9.0,9.0,34,0.00,,---,0.00,VWS V14.01,2013-03-10 21:44:00,
2013-03-10 17:49:00,64.3,36.1,30.18,South,169,1.0,9.0,35,0.00,,---,0.00,VWS V14.01,2013-03-10 21:49:00,
2013-03-10 17:54:00,64.2,34.5,30.18,SSW,193,3.0,9.0,33,0.00,,---,0.00,VWS V14.01,2013-03-10 21:54:00,
2013-03-10 17:59:00,64.1,35.2,30.19,SSW,204,0.0,9.0,34,0.00,,---,0.00,VWS V14.01,2013-03-10 21:59:00,
2013-03-10 18:00:00,64.2,35.3,30.19,South,188,3.0,9.0,34,0.00,,---,0.00,VWS V14.01,2013-03-10 22:00:00,
2013-03-10 18:04:00,64.0,34.3,30.18,ENE,74,4.0,11.0,33,0.00,,---,0.00,VWS V14.01,2013-03-10 22:04:00,
2013-03-10 18:09:00,63.9,35.0,30.18,South,176,0.0,11.0,34,0.00,,---,0.00,VWS V14.01,2013-03-10 22:09:00,
2013-03-10 18:14:00,63.8,34.2,30.18,South,185,2.0,11.0,33,0.00,,---,0.00,VWS V14.01,2013-03-10 22:14:00,
2013-03-10 18:19:00,63.6,34.7,30.18,South,183,3.0,11.0,34,0.00,,---,0.00,VWS V14.01,2013-03-10 22:19:00,
2013-03-10 18:24:00,63.4,33.8,30.19,South,178,4.0,11.0,33,0.00,,---,0.00,VWS V14.01,2013-03-10 22:24:00,
2013-03-10 18:29:00,63.4,33.8,30.19,South,188,2.0,11.0,33,0.00,,---,0.00,VWS V14.01,2013-03-10 22:29:00,
2013-03-10 18:30:00,63.4,33.8,30.19,SSE,151,5.0,11.0,33,0.00,,---,0.00,VWS V14.01,2013-03-10 22:30:00,
2013-03-10 18:34:00,63.3,34.5,30.19,SE,135,2.0,7.0,34,0.00,,---,0.00,VWS V14.01,2013-03-10 22:34:00,
2013-03-10 18:39:00,63.0,34.2,30.19,SE,146,4.0,7.0,34,0.00,,---,0.00,VWS V14.01,2013-03-10 22:39:00,
2013-03-10 18:44:00,62.7,34.7,30.18,South,169,0.0,7.0,35,0.00,,---,0.00,VWS V14.01,2013-03-10 22:44:00,
2013-03-10 18:49:00,62.3,34.3,30.18,South,182,0.0,7.0,35,0.00,,---,0.00,VWS V14.01,2013-03-10 22:49:00,
2013-03-10 18:54:00,61.9,34.0,30.18,South,182,1.0,7.0,35,0.00,,---,0.00,VWS V14.01,2013-03-10 22:54:00,
2013-03-10 18:59:00,61.6,34.4,30.18,South,177,0.0,7.0,36,0.00,,---,0.00,VWS V14.01,2013-03-10 22:59:00,
2013-03-10 19:00:00,61.6,34.4,30.18,South,177,1.0,7.0,36,0.00,,---,0.00,VWS V14.01,2013-03-10 23:00:00,
2013-03-10 19:04:00,61.2,34.7,30.18,South,174,0.0,4.0,37,0.00,,---,0.00,VWS V14.01,2013-03-10 23:04:00,
2013-03-10 19:09:00,60.8,34.4,30.18,South,174,0.0,4.0,37,0.00,,---,0.00,VWS V14.01,2013-03-10 23:09:00,
2013-03-10 19:14:00,60.5,34.1,30.19,South,174,0.0,4.0,37,0.00,,---,0.00,VWS V14.01,2013-03-10 23:14:00,
2013-03-10 19:19:00,60.1,34.4,30.19,South,174,0.0,4.0,38,0.00,,---,0.00,VWS V14.01,2013-03-10 23:19:00,
2013-03-10 19:24:00,59.7,34.7,30.18,South,174,0.0,4.0,39,0.00,,---,0.00,VWS V14.01,2013-03-10 23:24:00,
2013-03-10 19:29:00,59.4,33.8,30.18,South,174,0.0,4.0,38,0.00,,---,0.00,VWS V14.01,2013-03-10 23:29:00,
2013-03-10 19:30:00,59.3,33.7,30.18,South,174,0.0,4.0,38,0.00,,---,0.00,VWS V14.01,2013-03-10 23:30:00,
2013-03-10 19:34:00,59.0,34.1,30.18,South,174,0.0,2.0,39,0.00,,---,0.00,VWS V14.01,2013-03-10 23:34:00,
2013-03-10 19:39:00,58.7,33.8,30.18,South,174,0.0,2.0,39,0.00,,---,0.00,VWS V14.01,2013-03-10 23:39:00,
2013-03-10 19:44:00,58.4,34.2,30.19,South,174,0.0,2.0,40,0.00,,---,0.00,VWS V14.01,2013-03-10 23:44:00,
2013-03-10 19:49:00,58.0,33.8,30.19,South,174,0.0,2.0,40,0.00,,---,0.00,VWS V14.01,2013-03-10 23:49:00,
2013-03-10 19:54:00,57.6,33.5,30.19,South,174,0.0,2.0,40,0.00,,---,0.00,VWS V14.01,2013-03-10 23:54:00,
2013-03-10 19:59:00,57.2,33.7,30.19,South,174,0.0,2.0,41,0.00,,---,0.00,VWS V14.01,2013-03-10 23:59:00,
2013-03-10 20:00:00,57.2,33.7,30.19,South,174,0.0,2.0,41,0.00,,---,0.00,VWS V14.01,2013-03-11 00:00:00,
2013-03-10 20:04:00,56.9,33.5,30.19,South,174,0.0,0.0,41,0.00,,---,0.00,VWS V14.01,2013-03-11 00:04:00,
2013-03-10 20:09:00,56.6,33.8,30.19,South,174,0.0,1.0,42,0.00,,---,0.00,VWS V14.01,2013-03-11 00:09:00,
2013-03-10 20:14:00,56.4,33.6,30.20,South,174,0.0,1.0,42,0.00,,---,0.00,VWS V14.01,2013-03-11 00:14:00,
2013-03-10 20:19:00,56.2,33.4,30.20,South,174,1.0,1.0,42,0.00,,---,0.00,VWS V14.01,2013-03-11 00:19:00,
2013-03-10 20:24:00,56.0,33.2,30.20,South,174,0.0,2.0,42,0.00,,---,0.00,VWS V14.01,2013-03-11 00:24:00,
2013-03-10 20:29:00,55.8,33.7,30.20,South,174,0.0,2.0,43,0.00,,---,0.00,VWS V14.01,2013-03-11 00:29:00,
2013-03-10 20:30:00,55.8,33.7,30.20,South,174,0.0,2.0,43,0.00,,---,0.00,VWS V14.01,2013-03-11 00:30:00,
2013-03-10 20:34:00,55.6,32.9,30.20,South,174,0.0,5.0,42,0.00,,---,0.00,VWS V14.01,2013-03-11 00:34:00,
2013-03-10 20:39:00,55.6,33.5,30.20,South,174,0.0,5.0,43,0.00,,---,0.00,VWS V14.01,2013-03-11 00:39:00,
2013-03-10 20:44:00,55.5,33.4,30.20,South,174,0.0,5.0,43,0.00,,---,0.00,VWS V14.01,2013-03-11 00:44:00,
2013-03-10 20:49:00,55.4,33.3,30.20,South,174,0.0,5.0,43,0.00,,---,0.00,VWS V14.01,2013-03-11 00:49:00,
2013-03-10 20:54:00,55.2,33.1,30.20,South,174,0.0,5.0,43,0.00,,---,0.00,VWS V14.01,2013-03-11 00:54:00,
2013-03-10 20:59:00,55.0,32.9,30.20,South,174,1.0,5.0,43,0.00,,---,0.00,VWS V14.01,2013-03-11 00:59:00,
2013-03-10 21:00:00,55.0,32.9,30.20,South,174,0.0,5.0,43,0.00,,---,0.00,VWS V14.01,2013-03-11 01:00:00,
2013-03-10 21:04:00,54.9,32.8,30.20,South,174,0.0,0.0,43,0.00,,---,0.00,VWS V14.01,2013-03-11 01:04:00,
2013-03-10 21:09:00,54.7,32.7,30.20,South,174,0.0,0.0,43,0.00,,---,0.00,VWS V14.01,2013-03-11 01:09:00,
2013-03-10 21:14:00,54.5,33.0,30.20,South,174,0.0,0.0,44,0.00,,---,0.00,VWS V14.01,2013-03-11 01:14:00,
2013-03-10 21:19:00,54.3,32.9,30.20,South,174,0.0,0.0,44,0.00,,---,0.00,VWS V14.01,2013-03-11 01:19:00,
2013-03-10 21:24:00,54.0,33.2,30.20,South,174,0.0,0.0,45,0.00,,---,0.00,VWS V14.01,2013-03-11 01:24:00,
2013-03-10 21:29:00,53.6,33.3,30.20,South,174,0.0,1.0,46,0.00,,---,0.00,VWS V14.01,2013-03-11 01:29:00,
2013-03-10 21:30:00,53.6,33.3,30.20,South,174,0.0,1.0,46,0.00,,---,0.00,VWS V14.01,2013-03-11 01:30:00,
2013-03-10 21:34:00,53.2,33.5,30.20,South,174,1.0,4.0,47,0.00,,---,0.00,VWS V14.01,2013-03-11 01:34:00,
2013-03-10 21:39:00,52.7,33.0,30.20,South,174,0.0,4.0,47,0.00,,---,0.00,VWS V14.01,2013-03-11 01:39:00,
2013-03-10 21:44:00,52.4,33.3,30.21,South,174,0.0,4.0,48,0.00,,---,0.00,VWS V14.01,2013-03-11 01:44:00,
2013-03-10 21:49:00,52.1,33.5,30.21,South,174,0.0,4.0,49,0.00,,---,0.00,VWS V14.01,2013-03-11 01:49:00,
2013-03-10 21:54:00,51.7,33.7,30.21,South,174,0.0,4.0,50,0.00,,---,0.00,VWS V14.01,2013-03-11 01:54:00,
2013-03-10 21:59:00,51.4,33.9,30.21,South,174,0.0,4.0,51,0.00,,---,0.00,VWS V14.01,2013-03-11 01:59:00,
2013-03-10 22:00:00,51.3,33.8,30.21,South,174,0.0,4.0,51,0.00,,---,0.00,VWS V14.01,2013-03-11 02:00:00,
2013-03-10 22:04:00,51.0,33.0,30.21,South,174,0.0,1.0,50,0.00,,---,0.00,VWS V14.01,2013-03-11 02:04:00,
2013-03-10 22:09:00,51.0,33.0,30.21,South,174,0.0,2.0,50,0.00,,---,0.00,VWS V14.01,2013-03-11 02:09:00,
2013-03-10 22:14:00,50.9,33.4,30.21,South,174,0.0,4.0,51,0.00,,---,0.00,VWS V14.01,2013-03-11 02:14:00,
2013-03-10 22:19:00,50.7,33.2,30.21,South,174,0.0,4.0,51,0.00,,---,0.00,VWS V14.01,2013-03-11 02:19:00,
2013-03-10 22:24:00,50.5,33.5,30.20,South,174,0.0,4.0,52,0.00,,---,0.00,VWS V14.01,2013-03-11 02:24:00,
2013-03-10 22:29:00,50.4,33.5,30.21,SSW,198,6.0,6.0,52,0.00,,---,0.00,VWS V14.01,2013-03-11 02:29:00,
2013-03-10 22:30:00,50.4,33.5,30.21,South,189,3.0,6.0,52,0.00,,---,0.00,VWS V14.01,2013-03-11 02:30:00,
2013-03-10 22:34:00,50.2,32.8,30.21,South,189,1.0,3.0,51,0.00,,---,0.00,VWS V14.01,2013-03-11 02:34:00,
2013-03-10 22:39:00,50.3,32.9,30.21,South,189,3.0,4.0,51,0.00,,---,0.00,VWS V14.01,2013-03-11 02:39:00,
2013-03-10 22:44:00,50.4,33.0,30.21,South,183,0.0,4.0,51,0.00,,---,0.00,VWS V14.01,2013-03-11 02:44:00,
2013-03-10 22:49:00,50.5,33.1,30.22,South,184,0.0,4.0,51,0.00,,---,0.00,VWS V14.01,2013-03-11 02:49:00,
2013-03-10 22:54:00,50.5,33.1,30.22,South,184,0.0,4.0,51,0.00,,---,0.00,VWS V14.01,2013-03-11 02:54:00,
2013-03-10 22:59:00,50.4,32.0,30.21,South,190,0.0,5.0,49,0.00,,---,0.00,VWS V14.01,2013-03-11 02:59:00,
2013-03-10 23:00:00,50.4,32.0,30.21,South,190,0.0,5.0,49,0.00,,---,0.00,VWS V14.01,2013-03-11 03:00:00,
2013-03-10 23:04:00,50.7,33.2,30.22,South,190,0.0,3.0,51,0.00,,---,0.00,VWS V14.01,2013-03-11 03:04:00,
2013-03-10 23:09:00,50.6,32.7,30.21,South,190,0.0,3.0,50,0.00,,---,0.00,VWS V14.01,2013-03-11 03:09:00,
2013-03-10 23:14:00,50.5,32.6,30.21,South,190,0.0,3.0,50,0.00,,---,0.00,VWS V14.01,2013-03-11 03:14:00,
2013-03-10 23:19:00,50.6,32.2,30.21,South,190,0.0,3.0,49,0.00,,---,0.00,VWS V14.01,2013-03-11 03:19:00,
2013-03-10 23:24:00,50.6,33.2,30.21,South,190,0.0,3.0,51,0.00,,---,0.00,VWS V14.01,2013-03-11 03:24:00,
2013-03-10 23:29:00,50.1,32.7,30.21,South,190,0.0,3.0,51,0.00,,---,0.00,VWS V14.01,2013-03-11 03:29:00,
2013-03-10 23:30:00,50.1,32.7,30.21,South,190,0.0,3.0,51,0.00,,---,0.00,VWS V14.01,2013-03-11 03:30:00,
2013-03-10 23:34:00,49.7,31.8,30.21,South,190,0.0,0.0,50,0.00,,---,0.00,VWS V14.01,2013-03-11 03:34:00,
2013-03-10 23:39:00,49.6,31.7,30.20,South,190,0.0,0.0,50,0.00,,---,0.00,VWS V14.01,2013-03-11 03:39:00,
2013-03-10 23:44:00,49.6,31.7,30.20,South,190,0.0,0.0,50,0.00,,---,0.00,VWS V14.01,2013-03-11 03:44:00,
2013-03-10 23:49:00,49.6,32.2,30.20,South,190,0.0,0.0,51,0.00,,---,0.00,VWS V14.01,2013-03-11 03:49:00,
2013-03-10 23:54:00,49.3,32.0,30.20,South,190,0.0,0.0,51,0.00,,---,0.00,VWS V14.01,2013-03-11 03:54:00,
2013-03-10 23:59:00,49.0,31.7,30.20,South,190,0.0,0.0,51,0.00,,---,0.00,VWS V14.01,2013-03-11 03:59:00,